Weather History for Moriarty, NM

Change the Weather History Date:

Thursday, October 24, 2013

  Actual Average (KABQ) Record (KABQ)
Temperature  
Mean Temperature 46 °F 54 °F  
Max Temperature 70 °F 66 °F 80 °F (2012)
Min Temperature 23 °F 43 °F 25 °F (1975)
Degree Days  
Heating Degree Days 18 11  
Month to date heating degree days 156  
Since 1 July heating degree days 182  
Cooling Degree Days 0 0  
Month to date cooling degree days 7  
Year to date cooling degree days 1319  
Moisture  
Dew Point 24 °F    
Average Humidity 44    
Maximum Humidity 74    
Minimum Humidity 17    
Precipitation  
Precipitation 0.00 in 0.03 in 0.74 in (1932)
Month to date precipitation 0.86  
Year to date precipitation 8.22  
Snow  
Snow 0.00 in - - ()
Month to date snowfall  
Since 1 July snowfall  
Since 1 September snowfall  
Snow Depth -    
Sea Level Pressure  
Sea Level Pressure 30.27 in    
Wind  
Wind Speed 4 mph (SE)    
Max Wind Speed 15 mph    
Max Gust Speed 31 mph    
Visibility 10 miles    
Events Rain , Thunderstorm    
T = Trace of Precipitation, MM = Missing Value Source: NWS Daily Summary

Daily Weather History Graph

Daily Weather History Graph

Search for Another Location

Airport:

Trip Planner

Search our weather history database for the weather conditions in past years. The results will help you decide how hot, cold, wet, or windy it might be!

Date:

Astronomy

Oct. 24, 2013 Rise Set
Actual Time 7:17 AM MDT 6:17 PM MDT
Civil Twilight 6:52 AM MDT 6:43 PM MDT
Nautical Twilight 6:22 AM MDT 7:13 PM MDT
Astronomical Twilight 5:53 AM MDT 7:42 PM MDT
Moon 10:49 PM MDT (10/24) 12:15 PM MDT (10/24)
Length of Visible Light 11h 51m
Length of Day
10h 59m
Waning Gibbous, 70% of the Moon is Illuminated
Oct 24
Waning Gibbous
Oct 26
Last Quarter
Nov 3
New
Nov 9
First Quarter
Nov 17
Full

Hourly Weather History & Observations

Time (MDT) Temp. Windchill Dew Point Humidity Pressure Visibility Wind Dir Wind Speed Gust Speed Precip Events Conditions
12:15 AM 35.1 °F - 20.5 °F 55% 30.25 in 10.0 mi Calm Calm - N/A   Clear
12:35 AM 36.7 °F - 22.1 °F 56% 30.26 in 10.0 mi Calm Calm - N/A   Clear
12:55 AM 35.8 °F - 21.9 °F 57% 30.25 in 10.0 mi Calm Calm - N/A   Clear
1:15 AM 34.5 °F - 20.8 °F 57% 30.25 in 10.0 mi Calm Calm - N/A   Clear
1:35 AM 33.8 °F - 20.7 °F 59% 30.25 in 10.0 mi Calm Calm - N/A   Clear
1:55 AM 32.9 °F - 20.5 °F 60% 30.26 in 10.0 mi Calm Calm - N/A   Clear
2:15 AM 31.1 °F 26.4 °F 19.4 °F 62% 30.26 in 10.0 mi NNW 4.6 mph - N/A   Clear
2:35 AM 30.9 °F 26.2 °F 19.0 °F 61% 30.26 in 10.0 mi NNW 4.6 mph - N/A   Clear
2:55 AM 29.7 °F 26.1 °F 18.7 °F 64% 30.26 in 10.0 mi NNE 3.5 mph - N/A   Clear
3:15 AM 28.0 °F 20.8 °F 19.0 °F 69% 30.26 in 10.0 mi ENE 6.9 mph - N/A   Clear
3:35 AM 27.3 °F - 18.7 °F 70% 30.27 in 10.0 mi Calm Calm - N/A   Clear
3:55 AM 27.1 °F 20.7 °F 18.7 °F 70% 30.27 in 10.0 mi NW 5.8 mph - N/A   Clear
4:15 AM 28.0 °F 22.8 °F 19.0 °F 69% 30.27 in 10.0 mi NW 4.6 mph - N/A   Clear
4:35 AM 26.4 °F 22.4 °F 18.5 °F 72% 30.27 in 10.0 mi North 3.5 mph - N/A   Clear
4:55 AM 24.8 °F 16.1 °F 17.4 °F 74% 30.27 in 10.0 mi North 8.1 mph - N/A   Clear
5:15 AM 25.9 °F 21.7 °F 18.0 °F 72% 30.28 in 10.0 mi North 3.5 mph - N/A   Clear
5:35 AM 26.4 °F - 18.0 °F 70% 30.28 in 10.0 mi Calm Calm - N/A   Clear
5:55 AM 24.8 °F - 17.2 °F 73% 30.28 in 10.0 mi Calm Calm - N/A   Clear
6:15 AM 26.4 °F - 18.1 °F 71% 30.29 in 10.0 mi Calm Calm - N/A   Clear
6:35 AM 23.5 °F - 16.0 °F 73% 30.29 in 10.0 mi Calm Calm - N/A   Clear
6:55 AM 25.2 °F 20.9 °F 17.6 °F 73% 30.29 in 10.0 mi NNE 3.5 mph - N/A   Clear
7:15 AM 25.5 °F 21.3 °F 17.6 °F 72% 30.29 in 10.0 mi ENE 3.5 mph - N/A   Clear
7:35 AM 24.8 °F 19.1 °F 17.4 °F 74% 30.29 in 10.0 mi NE 4.6 mph - N/A   Clear
7:55 AM 26.6 °F 21.2 °F 18.3 °F 71% 30.31 in 10.0 mi NE 4.6 mph - N/A   Clear
8:15 AM 29.3 °F - 19.4 °F 67% 30.31 in 10.0 mi Calm Calm - N/A   Clear
8:35 AM 33.3 °F - 20.8 °F 60% 30.32 in 10.0 mi Calm Calm - N/A   Clear
8:55 AM 36.9 °F - 21.9 °F 55% 30.32 in 10.0 mi Calm Calm - N/A   Clear
9:15 AM 40.3 °F - 22.5 °F 49% 30.33 in 10.0 mi Calm Calm - N/A   Clear
9:35 AM 44.2 °F - 23.0 °F 43% 30.33 in 10.0 mi Calm Calm - N/A   Clear
9:55 AM 47.7 °F - 22.8 °F 38% 30.33 in 10.0 mi Calm Calm - N/A   Clear
10:15 AM 51.1 °F - 23.2 °F 34% 30.33 in 10.0 mi Calm Calm - N/A   Clear
10:35 AM 53.4 °F - 23.7 °F 32% 30.32 in 10.0 mi Calm Calm - N/A   Clear
10:55 AM 55.8 °F - 24.6 °F 30% 30.32 in 10.0 mi South 4.6 mph - N/A   Clear
11:15 AM 58.5 °F - 25.3 °F 28% 30.32 in 10.0 mi SE 4.6 mph - N/A   Clear
11:35 AM 61.2 °F - 26.2 °F 26% 30.32 in 10.0 mi South 5.8 mph - N/A   Clear
11:55 AM 62.1 °F - 26.1 °F 25% 30.31 in 10.0 mi SSE 5.8 mph - N/A   Clear
12:15 PM 64.0 °F - 25.9 °F 24% 30.31 in 10.0 mi South 5.8 mph - N/A   Clear
12:35 PM 65.3 °F - 25.3 °F 22% 30.29 in 10.0 mi SSW 6.9 mph - N/A   Clear
12:55 PM 66.0 °F - 25.7 °F 22% 30.28 in 10.0 mi South 4.6 mph - N/A   Clear
1:15 PM 67.3 °F - 27.0 °F 22% 30.27 in 10.0 mi South 10.4 mph - N/A   Clear
1:35 PM 67.3 °F - 27.0 °F 22% 30.26 in 10.0 mi SSE 10.4 mph - N/A   Clear
1:55 PM 68.2 °F - 27.0 °F 21% 30.25 in 10.0 mi SSE 8.1 mph - N/A   Clear
2:15 PM 68.5 °F - 26.2 °F 20% 30.24 in 10.0 mi South 11.5 mph 16.1 mph N/A   Clear
2:35 PM 67.6 °F - 24.8 °F 20% 30.23 in 10.0 mi South 10.4 mph 17.3 mph N/A   Clear
2:55 PM 69.6 °F - 23.9 °F 18% 30.23 in 10.0 mi SSE 8.1 mph - N/A   Clear
3:15 PM 70.0 °F - 24.4 °F 18% 30.22 in 10.0 mi South 6.9 mph - N/A   Clear
3:35 PM 68.9 °F - 25.0 °F 19% 30.22 in 10.0 mi SSE 6.9 mph - N/A   Clear
3:55 PM 70.0 °F - 23.9 °F 18% 30.22 in 10.0 mi South 8.1 mph - N/A   Clear
4:15 PM 70.0 °F - 23.4 °F 17% 30.21 in 10.0 mi SE 3.5 mph - N/A   Clear
4:35 PM 68.9 °F - 23.4 °F 18% 30.21 in 10.0 mi SSE 8.1 mph - N/A   Clear
4:55 PM 66.9 °F - 23.9 °F 20% 30.21 in 10.0 mi SE 8.1 mph - N/A   Clear
5:15 PM 68.0 °F - 24.4 °F 19% 30.21 in 10.0 mi SSE 9.2 mph - N/A   Clear
5:35 PM 66.7 °F - 26.6 °F 22% 30.21 in 10.0 mi ESE 10.4 mph - N/A   Clear
5:55 PM 64.0 °F - 26.4 °F 24% 30.21 in 10.0 mi ESE 11.5 mph - N/A   Clear
6:15 PM 61.7 °F - 26.6 °F 26% 30.22 in 10.0 mi ESE 11.5 mph - N/A   Clear
6:35 PM 60.3 °F - 25.7 °F 27% 30.23 in 10.0 mi ESE 11.5 mph - N/A   Clear
6:55 PM 57.2 °F - 25.7 °F 30% 30.23 in 10.0 mi ESE 10.4 mph - N/A   Clear
7:15 PM 55.6 °F - 25.5 °F 31% 30.24 in 10.0 mi ESE 10.4 mph - N/A   Clear
7:35 PM 55.8 °F - 25.5 °F 31% 30.24 in 10.0 mi ESE 11.5 mph - N/A   Clear
7:55 PM 55.4 °F - 25.3 °F 31% 30.25 in 10.0 mi ESE 12.7 mph - N/A   Clear
8:15 PM 54.7 °F - 26.1 °F 33% 30.26 in 10.0 mi ESE 13.8 mph - N/A   Clear
8:35 PM 55.0 °F - 27.5 °F 35% 30.27 in 10.0 mi SE 15.0 mph - N/A   Clear
8:55 PM 56.3 °F - 28.4 °F 34% 30.28 in 10.0 mi SE 13.8 mph 19.6 mph N/A   Clear
9:15 PM 56.3 °F - 28.8 °F 35% 30.29 in 10.0 mi SE 13.8 mph - N/A   Mostly Cloudy
9:35 PM 55.2 °F - 28.0 °F 35% 30.32 in 10.0 mi SW 8.1 mph 31.1 mph N/A   Overcast
9:55 PM 56.3 °F - 30.0 °F 37% 30.33 in 10.0 mi WSW 6.9 mph - N/A   Overcast
10:15 PM 55.0 °F - 35.8 °F 48% 30.31 in 10.0 mi Calm Calm - N/A Rain Light Rain
10:35 PM 54.5 °F - 34.9 °F 48% 30.30 in 10.0 mi East 3.5 mph - N/A   Mostly Cloudy
10:55 PM 52.9 °F - 35.6 °F 52% 30.30 in 10.0 mi ESE 3.5 mph - N/A   Overcast
11:15 PM 51.3 °F - 34.0 °F 52% 30.31 in 10.0 mi Calm Calm - N/A   Overcast
11:35 PM 51.3 °F - 36.0 °F 56% 30.32 in 10.0 mi NW 15.0 mph 20.7 mph N/A   Overcast
11:55 PM 53.1 °F - 38.5 °F 58% 30.33 in 10.0 mi North 6.9 mph - N/A Thunderstorm Overcast